Weather past 2 weeks in Bantam, Cocos Islands

Now
82 °F

Warm.


Feels Like: 89 °F
Forecast: 82 / 87 °F
Wind: 8 mph from Southwest

Location: Cocos Island Airport


UV Index: 7 (High)

Visibility: N/A


Pressure: 29.77 "Hg

Humidity: 79%

Dew point: 75 °F

Location of BantamLocation

Historic Weather in Bantam

°F

Bantam temperature yesterday

Maximum temperature yesterday: 88 °F (at 11:00 AM)
Minimum temperature yesterday: 81 °F (at 8:30 PM)
Average temperature yesterday: 84 °F

Past Weeks' High & Low Weather Summary

 TemperatureHumidityPressure
High90 °F (Apr 13, 11:30 AM)100% (Apr 16, 2:00 PM)29.92 "Hg (Apr 16, 2:00 PM)
Low75 °F (Apr 19, 11:00 PM)59% (Apr 9, 12:30 PM)29.71 "Hg (Apr 17, 4:26 AM)
Average83 °F79%29.80 "Hg
* Reported Apr 9 12:30 AM — Apr 24 12:30 AM, Bantam, Weather by CustomWeather, © 2014

Note: Actual official high and low records may vary slightly from our data, if they occured in-between our weather recording intervals... More about our weather records

Advertising

Historic Weather Conditions — Data for Previous 24 hours

 ConditionsComfort  
Time TempWeatherWind HumidityBarometerVisibility
12:30 AM
Apr 24
82 °FPartly cloudy.6 mph79%29.77 "HgN/A
12:00 AM82 °FPassing clouds.7 mph79%29.80 "HgN/A
11:30 PM
Apr 23
82 °FPassing clouds.6 mph79%29.80 "HgN/A
11:00 PM81 °FPassing clouds.9 mph84%29.80 "HgN/A
10:30 PM82 °FPassing clouds.9 mph79%29.80 "HgN/A
10:00 PM82 °FPassing clouds.8 mph79%29.80 "HgN/A
9:30 PM82 °FWarm.9 mph84%29.80 "HgN/A
9:00 PM81 °FPartly cloudy.10 mph89%29.80 "HgN/A
8:30 PM81 °FOvercast.5 mph84%29.80 "HgN/A
8:00 PM82 °FMostly cloudy.8 mph84%29.80 "HgN/A
7:30 PM82 °FPassing clouds.8 mph79%29.80 "HgN/A
7:00 PM82 °FPassing clouds.8 mph84%29.77 "HgN/A
6:30 PM84 °FScattered clouds.9 mph74%29.77 "HgN/A
6:00 PM84 °FSunny.9 mph74%29.74 "HgN/A
5:30 PM84 °FWarm.10 mph74%29.74 "HgN/A
5:00 PM84 °FScattered clouds.10 mph74%29.74 "HgN/A
4:30 PM84 °FPartly sunny.10 mph79%29.74 "HgN/A
4:00 PM86 °FPartly sunny.10 mph70%29.71 "HgN/A
3:30 PM86 °FPartly sunny.10 mph70%29.71 "HgN/A
3:00 PM86 °FPartly sunny.12 mph70%29.71 "HgN/A
2:30 PM86 °FPartly sunny.10 mph75%29.71 "HgN/A
2:00 PM88 °FPartly sunny.12 mph66%29.74 "HgN/A
1:30 PM88 °FPartly sunny.12 mph70%29.74 "HgN/A
1:00 PM88 °FPartly sunny.10 mph70%29.74 "HgN/A
12:30 PM88 °FPartly sunny.9 mph70%29.77 "HgN/A
12:00 PM86 °FPartly sunny.8 mph75%29.77 "HgN/A
11:30 AM86 °FPartly sunny.8 mph75%29.77 "HgN/A
11:00 AM88 °FPartly sunny.9 mph75%29.77 "HgN/A
10:30 AM86 °FSunny.8 mph79%29.80 "HgN/A
10:00 AM86 °FPartly sunny.9 mph75%29.80 "HgN/A
9:30 AM86 °FPartly sunny.8 mph75%29.80 "HgN/A
9:00 AM86 °FPartly sunny.7 mph75%29.80 "HgN/A
8:30 AM84 °FBroken clouds.6 mph79%29.80 "HgN/A
8:00 AM84 °FPartly sunny.7 mph79%29.80 "HgN/A
7:30 AM84 °FPartly sunny.6 mph79%29.80 "HgN/A
7:00 AM82 °FPartly cloudy.6 mph84%29.77 "HgN/A
6:30 AM82 °FPartly cloudy.6 mph79%29.77 "HgN/A
6:00 AM82 °FPassing clouds.7 mph84%29.77 "HgN/A
5:30 AM82 °FPassing clouds.7 mph79%29.77 "HgN/A
5:00 AM82 °FClear.7 mph79%29.74 "HgN/A
4:30 AM82 °FPassing clouds.7 mph84%29.74 "HgN/A
4:00 AM82 °FPassing clouds.8 mph79%29.74 "HgN/A
3:30 AM82 °FPassing clouds.9 mph79%29.74 "HgN/A
3:00 AM82 °FPassing clouds.7 mph84%29.77 "HgN/A
2:30 AM82 °FPassing clouds.8 mph79%29.77 "HgN/A
2:00 AM82 °FPassing clouds.8 mph79%29.77 "HgN/A
Weather by CustomWeather, © 2014

See weather overview